GW0416 Weather Reports


Display with metric or nautical units.
time (UTC)temp
F
wind
direction
speed
MPH
gust
MPH
rain 1hr
in
rain 24hr
in
rain mn
in
humidity
%
barometer
mb
20260831230041 72 144 11.0 18.0 0.00 0.00 0.00 38 1014.9
20260831224538 72 215 9.0 15.0 0.00 0.00 0.00 38 1014.9
20260831223036 72 235 10.0 14.0 0.00 0.00 0.00 38 1015.0
20260831221536 73 212 3.0 10.0 0.00 0.00 0.00 38 1015.2
20260831220038 73 277 6.0 13.0 0.00 0.00 0.00 39 1015.1
20260831214539 72 298 9.0 15.0 0.00 0.00 0.00 39 1015.2
20260831213034 71 233 10.0 15.0 0.00 0.00 0.00 40 1015.4
20260831211536 71 304 10.0 17.0 0.00 0.00 0.00 39 1015.4
20260831210037 71 253 9.0 19.0 0.00 0.00 0.00 40 1015.4
20260831204549 71 323 10.0 18.0 0.00 0.00 0.00 40 1015.5
20260831203037 71 205 3.0 12.0 0.00 0.00 0.00 41 1015.7
20260831201536 70 272 11.0 16.0 0.00 0.00 0.00 41 1015.8
20260831200044 69 298 12.0 21.0 0.00 0.00 0.00 42 1015.7
20260831194540 69 276 11.0 16.0 0.00 0.00 0.00 42 1015.9
20260831193040 68 248 11.0 18.0 0.00 0.00 0.00 45 1016.0
20260831191537 68 267 9.0 12.0 0.00 0.00 0.00 45 1016.3
20260831190048 68 290 7.0 17.0 0.00 0.00 0.00 44 1016.5
20260831184536 68 220 9.0 19.0 0.00 0.00 0.00 45 1016.6
20260831183038 67 344 9.0 15.0 0.00 0.00 0.00 46 1016.5
20260831181535 67 305 11.0 22.0 0.00 0.00 0.00 46 1016.5
20260831180044 67 285 13.0 18.0 0.00 0.00 0.00 45 1016.6
20260831174543 67 282 8.0 17.0 0.00 0.00 0.00 48 1016.6
20260831173039 66 291 10.0 16.0 0.00 0.00 0.00 49 1016.7
20260831171537 66 288 9.0 19.0 0.00 0.00 0.00 48 1016.5
20260831170037 65 315 9.0 20.0 0.00 0.00 0.00 51 1016.6
20260831164553 65 5 12.0 20.0 0.00 0.00 0.00 52 1016.6
20260831163041 64 321 11.0 22.0 0.00 0.00 0.00 54 1016.5
20260831161535 64 292 10.0 20.0 0.00 0.00 0.00 54 1016.4
20260831160043 63 306 11.0 21.0 0.00 0.00 0.00 54 1016.3
20260831154604 62 284 11.0 19.0 0.00 0.00 0.00 54 1016.3
20260831153036 61 294 14.0 20.0 0.00 0.00 0.00 55 1016.4
20260831151534 59 296 16.0 22.0 0.00 0.00 0.00 57 1016.2
20260831150043 58 295 16.0 23.0 0.00 0.00 0.00 58 1016.1
20260831144538 57 300 18.0 25.0 0.00 0.00 0.00 59 1015.8
20260831143038 56 281 15.0 25.0 0.00 0.00 0.00 62 1015.6
20260831141535 54 290 14.0 20.0 0.00 0.00 0.00 65 1015.5
20260831140038 53 276 11.0 18.0 0.00 0.00 0.00 67 1015.5
20260831134534 51 290 11.0 17.0 0.00 0.00 0.00 71 1015.2
20260831133035 49 270 10.0 16.0 0.00 0.00 0.00 73 1015.2
20260831131535 48 279 12.0 16.0 0.00 0.00 0.00 75 1014.9
20260831130107 46 284 8.0 11.0 0.00 0.00 0.00 78 1014.9
20260831124535 47 295 10.0 15.0 0.00 0.00 0.00 76 1014.7
20260831123033 47 290 9.0 13.0 0.00 0.00 0.00 76 1014.5
20260831121536 48 294 9.0 15.0 0.00 0.00 0.00 74 1014.5
20260831120040 49 276 11.0 17.0 0.00 0.00 0.00 72 1014.2
20260831114536 49 288 13.0 18.0 0.00 0.00 0.00 71 1014.1
20260831113038 49 266 11.0 17.0 0.00 0.00 0.00 71 1014.3
20260831111546 49 271 11.0 18.0 0.00 0.00 0.00 71 1014.2
20260831110040 50 254 13.0 19.0 0.00 0.00 0.00 71 1014.1
20260831104552 49 269 12.0 20.0 0.00 0.00 0.00 72 1014.1
20260831103039 49 273 12.0 17.0 0.00 0.00 0.00 72 1013.8
20260831101537 49 275 12.0 20.0 0.00 0.00 0.00 73 1013.6
20260831100038 49 283 11.0 19.0 0.00 0.00 0.00 73 1013.6
20260831094534 48 265 10.0 14.0 0.00 0.00 0.00 75 1013.6
20260831093046 48 281 5.0 12.0 0.00 0.00 0.00 76 1013.8
20260831091534 48 261 8.0 17.0 0.00 0.00 0.00 75 1013.8
20260831090041 48 271 12.0 16.0 0.00 0.00 0.00 74 1013.4
20260831084536 49 270 12.0 18.0 0.00 0.01 0.00 73 1013.3
20260831083038 49 246 10.0 18.0 0.00 0.01 0.00 74 1013.1
20260831081536 49 237 10.0 17.0 0.00 0.01 0.00 74 1012.9
20260831080037 48 263 11.0 17.0 0.00 0.01 0.00 76 1012.5
20260831074537 48 269 9.0 14.0 0.00 0.01 0.00 75 1012.8
20260831073037 49 242 11.0 17.0 0.00 0.01 0.00 74 1012.7
20260831071535 50 256 11.0 19.0 0.00 0.01 0.00 73 1012.8
20260831070038 50 248 12.0 20.0 0.00 0.01 0.00 72 1012.7
20260831064537 51 270 12.0 20.0 0.00 0.01 0.00 71 1012.7
20260831063035 52 275 13.0 23.0 0.00 0.01 0.00 69 1012.7
20260831061535 52 242 10.0 20.0 0.00 0.01 0.00 68 1013.0
20260831060043 52 242 12.0 20.0 0.00 0.01 0.00 67 1012.8
20260831054537 53 253 13.0 22.0 0.00 0.01 0.01 66 1012.7
20260831053036 53 257 13.0 19.0 0.00 0.01 0.01 65 1012.5
20260831051538 53 263 14.0 23.0 0.00 0.01 0.01 66 1012.5
20260831050037 53 276 13.0 22.0 0.00 0.01 0.01 67 1012.4
20260831044536 53 271 14.0 20.0 0.00 0.01 0.01 66 1012.6
20260831043037 54 291 15.0 22.0 0.00 0.01 0.01 66 1012.5
20260831041536 54 296 13.0 24.0 0.00 0.01 0.01 64 1012.7
20260831040035 58 292 15.0 23.0 0.00 0.01 0.01 52 1012.6
20260831034537 58 267 18.0 26.0 0.00 0.01 0.01 51 1012.5
20260831033039 59 267 17.0 28.0 0.00 0.01 0.01 51 1012.2
20260831031539 59 257 17.0 29.0 0.00 0.01 0.01 50 1012.2
20260831030038 58 259 18.0 29.0 0.00 0.01 0.01 51 1011.9
20260831024541 59 247 17.0 29.0 0.00 0.01 0.01 50 1011.9
20260831023037 59 250 19.0 30.0 0.00 0.01 0.01 50 1011.7
20260831021538 59 281 21.0 31.0 0.00 0.01 0.01 50 1011.4
20260831020036 59 243 16.0 27.0 0.00 0.01 0.01 50 1011.4
20260831014540 60 255 18.0 34.0 0.00 0.01 0.01 49 1011.3
20260831013039 61 261 17.0 34.0 0.00 0.01 0.01 48 1011.2
20260831011536 61 255 18.0 33.0 0.00 0.01 0.01 47 1011.3
20260831010040 59 289 13.0 25.0 0.00 0.01 0.01 52 1011.5
20260831004553 59 313 15.0 28.0 0.00 0.02 0.01 56 1011.6
20260831003034 60 288 14.0 23.0 0.00 0.02 0.01 54 1011.6
20260831001534 59 297 18.0 30.0 0.00 0.02 0.01 54 1011.7
20260831000035 61 277 24.0 34.0 0.00 0.02 0.01 46 1011.3
20260830234551 62 277 23.0 34.0 0.00 0.30 0.01 45 1011.2
20260830233034 63 286 21.0 37.0 0.00 0.30 0.01 43 1011.1
20260830231535 63 275 20.0 35.0 0.00 0.30 0.01 44 1011.1